Location: Pensacola
(30.4142°N, 87.2155°W)
Time: 15:13:47
(UTC-06:00)

N. Korean satellite - Visible Passes

Search period start: 20 November 2017 00:00
Search period end: 30 November 2017 00:00
Orbit: 460 x 514 km, 97.2° (Epoch: 20 November)

Date Brightness Start Highest point End Pass type
(mag) Time Alt. Az. Time Alt. Az. Time Alt. Az.
20 Nov 8.8 18:32:19 10° SSW 18:35:15 25° W 18:38:13 10° NW visible
21 Nov 7.0 18:08:19 10° S 18:11:43 60° W 18:15:14 10° NNW visible
22 Nov 9.9 05:41:55 10° NE 05:44:25 17° E 05:46:54 10° SE visible
22 Nov 6.5 17:44:53 10° SSE 17:48:17 55° ENE 17:51:46 10° N visible
23 Nov 7.6 17:22:01 10° SE 17:24:55 25° ENE 17:27:51 10° NNE visible
23 Nov 10.0 18:56:57 10° WSW 18:58:25 12° W 18:59:53 10° WNW visible
24 Nov 8.8 18:31:50 10° SSW 18:34:49 26° W 18:37:50 10° NW visible
25 Nov 7.0 18:07:49 10° S 18:11:16 60° W 18:14:49 10° NNW visible
26 Nov 9.9 05:41:30 10° NE 05:43:59 17° E 05:46:29 10° SE visible
26 Nov 6.5 17:44:23 10° SSE 17:47:49 55° ENE 17:51:20 10° N visible
27 Nov 7.6 17:21:31 10° SE 17:24:26 25° ENE 17:27:25 10° NNE visible
27 Nov 10.0 18:56:23 10° WSW 18:57:56 12° W 18:59:30 10° WNW visible
28 Nov 8.8 18:31:19 10° SSW 18:34:19 26° W 18:37:23 10° NW visible
29 Nov 7.0 18:07:17 10° S 18:10:46 61° W 18:14:20 10° NNW visible
